Tracking 19644 objects as of 25-Apr-2019
HD Live streaming from Space Station
objects crossing your sky now

SL-18 DEB

Track SL-18 DEB now!
10-day predictions


NORAD ID: 28284
Int'l Code: 1993-014M
Perigee: 624.8 km
Apogee: 761.1 km
Inclination: 75.7 °
Period: 98.5 minutes
Semi major axis: 7063 km
RCS: 0.0056 m2 (small)
Launch date: March 25, 1993
Source: Commonwealth of Independent States (former USSR) (CIS)
Launch site: PLESETSK MISSILE AND SPACE COMPLEX (PKMTR)

Note: This is SATELLITE DEBRIS
aabbcc
Your satellite tracking list
Your tracking list is empty




NASA's NSSDC Master Catalog

Two Line Element Set (TLE):
1 28284U 93014M   19098.79080049  .00001689  00000-0  31672-3 0  9991
2 28284  75.7446 262.9492 0096500 246.1195 112.9848 14.62289375796485
Source of the keplerian elements: AFSPC